Main page
METAR-TAF:

METAR-TAF

Airports :

Parma, Italy

Parma Airport

latitude: 44-49-17N, longitude: 010-17-41E, elevation: 50 m

Current weather observation

The report was made 5 hours and 48 minutes ago, at 20:50 UTC
Wind 5 kt from variable directions
Temperature 23°C
Humidity 47%
Pressure 1004 hPa
Visibility 10 km or more
no clouds below 1500 m and no cumulonimbus

METAR: LIMP 252050Z VRB05KT CAVOK 23/11 Q1004

Time: 04:38 (02:38 UTC)

Forecast

The report was made 9 hours and 38 minutes ago, at 17:00 UTC
Forecast valid from 25 at 18 UTC to 26 at 18 UTC
Wind 9 kt from the West/Northwest
Visibility 10 km or more
no clouds below 1500 m and no cumulonimbus

TAF: LIMP 251700Z 2518/2618 30009KT CAVOK

Weather observations and forecasts of more than 4000 airports (METAR and TAF reports).

The available stations are represented by yellow and red dots on the map.

Hover mouse over dot to see the name of the station.

Then click to see weather observations and forecasts.

To change the map : click on the green buttons with a black cross to zoom in, on the green button with a dash to zoom out, or on the green arrows for adjacent maps.


METAR-TAF: